Location: Cahas Mountain Overlook
(37.0833°N, 80.1000°W)
Time: 18:54:18
(UTC-04:00)

Explorer 7 - Pass Details

Date: 09 February 2026
Orbit: 430 x 541 km, 50.2° (Epoch: 13 March)

Event Time Altitude Azimuth Distance (km) Brightness Sun altitude
Rises 16:39:55 0° 187° (S) 2,430 10.7 12.7°
Reaches altitude 10° 16:42:49 10° 160° (SSE) 1,588 9.3 12.2°
Maximum altitude 16:44:44 14° 128° (SE) 1,387 8.7 11.9°
Drops below altitude 10° 16:46:39 10° 96° (E) 1,624 8.8 11.5°
Sets 16:49:42 0° 70° (ENE) 2,543 9.6 11.0°
